Regional Weather Roundup
Issued by NWS

Home | Current Version | Previous Version | Text Only | Print | Product List | Glossary Off
Versions: 1 2 3 4 5 6 7 8 9 10 11 12 13 14 15 16 17 18 19 20 21 22 23 24 25 26 27 28 29 30 31 32 33 34 35 36 37 38 39 40 41 42 43 44 45 46 47 48 49 50

000
ASUS43 KLOT 181510
RWRIL

ILLINOIS REGIONAL WEATHER ROUNDUP
NATIONAL WEATHER SERVICE CHICAGO/ROMEOVILLE IL
1000 AM CDT FRI APR 18 2014

NOTE: "FAIR" INDICATES FEW OR NO CLOUDS BELOW 12,000 FEET WITH NO
SIGNIFICANT WEATHER AND/OR OBSTRUCTIONS TO VISIBILITY.

* THESE STATIONS ARE NOT UNDER NWS QUALITY CONTROL. THEY ALSO MAY NOT
  REPORT WEATHER SUCH AS PRECIPITATION OR FOG.

ILZ001-002-007-009-015-016-024-181600-
NORTHWEST ILLINOIS

CITY           SKY/WX    TMP DP  RH WIND       PRES   REMARKS
MOLINE         SUNNY     46  35  65 VRB3      30.36S
STERLING*      SUNNY     46  36  66 NE6       30.35F
$$

ILZ003-004-008-010-011-017-018-181600-
NORTH CENTRAL ILLINOIS

CITY           SKY/WX    TMP DP  RH WIND       PRES   REMARKS
ROCKFORD       MOSUNNY   46  33  60 N6        30.38R
FREEPORT*      SUNNY     44  36  74 N3        30.38S
ROCHELLE*      SUNNY     47  37  67 N8        30.35S
DE KALB*       SUNNY     44  35  70 N7        30.35R
PERU*          SUNNY     49  40  70 CALM      30.34S
$$

ILZ005-006-012>014-019>023-181600-
NORTHEAST ILLINOIS

CITY           SKY/WX    TMP DP  RH WIND       PRES   REMARKS
CHICAGO-OHARE  MOSUNNY   48  34  58 NE12      30.33S
CHICAGO-MIDWAY MOSUNNY   48  36  63 N8        30.33S
AURORA         SUNNY     49  38  65 NE8       30.33S HAZE
LANSING*       SUNNY     46  37  70 N10       30.33R
WAUKEGAN       SUNNY     44  34  67 NE9       30.34R
DUPAGE AIRPORT SUNNY     50  37  61 N5        30.32S
WHEELING       SUNNY     47  36  65 NE9       30.35R
ROMEOVILLE*    SUNNY     51  37  60 E5        30.32S
NORTHERLY ISL    N/A     43  35  73 N14         N/A
$$

LMZ740>746-181600-
SOUTHERN LAKE MICHIGAN

STATION/POSITION SKY/WX   TEMP    WIND        PRES    VSBY  WAVE
                          AIR SEA DIR/SP/G                  HT/PER
                          (F)     (DEG/KT/KT) (MB)    (MI)  (FT/S)
WAUKEGAN HARBOR            39      20/ 21/ 24 1028.4S
HARRISON CRIB              39     350/ 16/ 19   N/A
BURNHAM HARBOR             42     340/ 10/ 15   N/A
CALUMET HARBOR             42     340/ 12/ 18 1028.0R
MICHIGAN CITY              39     280/  8/  9   N/A
$$

ILZ025>027-034>036-040-047-049-050-058-095>099-181600-
WEST-CENTRAL ILLINOIS

CITY           SKY/WX    TMP DP  RH WIND       PRES   REMARKS
QUINCY         SUNNY     53  36  52 NE5       30.33S
GALESBURG*     SUNNY     50  39  66 NE7       30.34F
MACOMB*        SUNNY     50  37  61 N5        30.36S
JACKSONVILLE*  SUNNY     55  38  53 N5        30.35R
$$

ILZ028>032-037-038-041>044-048-051>054-059>061-181600-
CENTRAL ILLINOIS

CITY           SKY/WX    TMP DP  RH WIND       PRES   REMARKS
PONTIAC        SUNNY     54  43  66 N7        30.32R
BLOOMINGTON    SUNNY     52  35  52 N7        30.33R
DECATUR        SUNNY     56  40  55 N3        30.32S
PEORIA         SUNNY     53  36  52 VRB7      30.34S
LACON*         SUNNY     49  39  68 N6        30.33S
LINCOLN*       SUNNY     57  39  51 N7        30.33S
SPRINGFIELD    SUNNY     58  38  47 NE8       30.34R
TAYLORVILLE    SUNNY     54  39  58 N7        30.33S
$$

ILZ033-039-045-046-055>057-062-063-181600-
EAST-CENTRAL ILLINOIS

CITY           SKY/WX    TMP DP  RH WIND       PRES   REMARKS
CHAMPAIGN      SUNNY     58  40  51 VRB3      30.31S
MATTOON        SUNNY     58  42  55 N8        30.31R
PARIS*         SUNNY     60  44  55 N5        30.31R
$$

ILZ079-100>102-181600-
SOUTHWEST ILLINOIS

CITY           SKY/WX    TMP DP  RH WIND       PRES   REMARKS
ALTON          SUNNY     57  41  54 N6        30.33R
BELLEVILLE     SUNNY     59  44  56 NE7       30.31R
CAHOKIA*       SUNNY     58  42  55 N3        30.32S
SPARTA*        SUNNY     54  43  66 CALM      30.32R
$$

ILZ064>066-069>071-074>076-080>082-084>086-088>090-092>094-181600-
SOUTH-CENTRAL ILLINOIS

CITY           SKY/WX    TMP DP  RH WIND       PRES   REMARKS
CARBONDALE     SUNNY     61  46  57 VRB3      30.30R
CAIRO*         SUNNY     65  46  48 NE3       30.29R
MARION         MOSUNNY   61  48  63 CALM      30.31R
MT. VERNON     SUNNY     61  39  44 NW5       30.31R
CENTRALIA*       N/A     58  42  56 CALM      30.31R
SALEM*         SUNNY     58  46  63 N6        30.31R
METROPOLIS*    SUNNY     63  40  41 CALM      30.28S
$$

ILZ067-068-072-073-078-083-087-091-181600-
SOUTHEAST ILLINOIS

CITY           SKY/WX    TMP DP  RH WIND       PRES   REMARKS
FAIRFIELD*     SUNNY     64  48  55 CALM      30.29R
HARRISBURG*    MOSUNNY   60  47  61 CALM      30.31R
ROBINSON*      SUNNY     63  47  56 CALM      30.30R
CARMI*         SUNNY     64  48  56 CALM      30.29S
$$

ABBREVIATIONS USED IN REMARKS
   TC - TEMPERATURE IN CELSIUS
  WCI - WIND CHILL INDEX
   HX - HEAT INDEX
  VSB - VISIBILITY
$$




USA.gov is the U.S. government's official web portal to all federal, state and local government web resources and services.